Wind_Speed
30 29 29 29 28 27 27 27 26 24 23 21 20 19 18 16 16 16 16 16 16 16 16 16 15 15 15 15 16 16 16 16 17 17 17 16 16 16 16 15 15 15 15 15
31 30 30 30 29 29 28 28 27 25 24 23 21 21 19 18 18 18 18 18 17 17 18 19 18 17 17 17 17 17 18 18 19 19 19 17 17 17 16 16 16 15 16 16
33 32 31 32 30 30 29 29 28 28 26 25 24 22 20 19 20 19 19 17 19 19 20 20 20 19 19 19 19 19 20 20 20 21 20 18 18 17 16 16 16 17 17 17
34 33 34 32 31 31 30 29 29 28 27 27 26 25 23 22 22 21 20 21 21 21 22 22 21 21 21 20 21 21 21 22 22 21 20 19 19 18 18 18 18 18 18 18
37 37 36 34 32 31 31 31 31 30 28 27 27 26 26 25 24 24 23 23 23 23 24 24 23 23 23 22 22 22 22 23 22 22 22 21 21 20 20 19 19 19 19 20
36 38 38 36 34 32 32 32 31 31 30 29 29 29 27 27 26 26 25 24 26 25 24 24 24 25 25 24 23 24 23 23 23 23 23 23 22 21 20 21 21 21 21 21
34 35 36 34 34 33 34 33 31 31 31 31 30 29 28 27 26 26 26 25 26 26 26 25 26 26 26 25 25 25 25 25 26 25 23 24 23 22 22 22 22 22 23 23
33 33 33 32 32 32 32 31 31 31 31 31 31 30 29 29 28 27 28 27 27 27 27 27 27 27 27 27 27 27 27 27 27 26 25 25 24 23 23 23 24 24 24 23
33 33 32 32 31 31 31 32 32 32 32 32 32 32 31 31 30 30 29 28 28 28 28 28 28 28 28 28 28 28 27 27 27 27 27 27 25 25 25 25 25 26 25 25
33 33 32 32 32 32 32 32 33 33 33 33 33 33 32 32 32 31 30 29 29 29 29 29 30 30 30 29 28 28 28 27 27 27 27 28 28 27 27 27 27 27 27 26
34 33 33 32 33 33 33 34 34 34 34 33 33 33 33 33 32 32 31 31 31 31 30 31 31 30 30 30 30 30 29 29 29 29 29 30 30 29 29 29 29 28 28 28
33 33 34 33 34 34 34 34 34 34 34 33 33 32 31 31 31 31 31 31 31 31 32 32 32 31 31 31 32 31 31 30 30 31 32 31 30 30 30 30 30 29 29 29
33 33 34 34 33 33 33 34 34 34 34 34 34 33 32 32 32 33 32 32 32 31 31 32 32 32 32 34 35 34 32 32 32 32 32 32 31 31 31 31 31 31 31 30
33 33 33 33 33 34 34 34 35 35 35 35 34 34 34 33 33 34 34 34 33 33 32 32 32 32 33 34 34 33 33 32 32 32 33 33 32 32 32 32 32 32 31 31
33 34 34 34 34 35 35 35 35 35 35 35 34 33 34 34 33 33 34 34 33 33 32 32 32 32 32 32 32 32 33 32 33 33 33 33 33 33 32 32 32 31 31 31
34 34 34 35 34 34 35 35 35 35 35 35 34 34 34 34 33 33 33 33 34 33 33 33 32 31 31 31 32 33 33 33 33 34 34 33 33 33 32 32 32 32 32 31
33 33 34 34 34 33 33 34 34 34 34 35 34 34 33 33 33 33 33 33 32 32 32 32 31 31 30 31 32 33 33 32 32 33 33 33 33 33 32 32 32 31 31 31
31 32 32 32 33 33 33 33 33 32 33 33 32 31 31 30 31 32 32 33 32 31 30 30 30 30 31 31 32 32 32 32 32 33 33 34 33 32 32 32 32 31 30 30
29 29 30 30 31 31 31 31 30 29 29 29 30 29 29 28 29 31 32 31 31 30 29 29 30 31 31 31 31 31 30 31 32 33 32 32 32 32 32 31 31 31 29 29
26 27 27 27 28 28 28 27 27 26 26 27 28 27 26 27 27 29 30 29 29 29 29 30 30 30 30 29 29 29 29 29 30 30 31 32 31 31 31 31 31 31 31 31
24 24 24 25 25 25 25 25 25 25 26 25 26 26 25 24 25 26 27 28 28 28 28 28 29 29 29 30 30 29 29 29 30 30 30 30 30 31 32 32 32 32 31 31
22 22 22 23 23 23 24 24 23 23 23 23 22 23 23 23 24 24 25 26 26 26 25 26 26 26 27 28 28 29 29 30 30 30 30 31 31 32 33 33 33 33 33 32
20 20 21 21 21 20 20 21 21 20 21 20 19 20 20 21 22 22 23 23 23 23 24 24 24 25 26 27 28 29 29 30 30 31 31 31 31 32 32 32 32 32 32 31
18 18 18 18 18 18 18 18 18 18 18 18 17 17 18 19 20 21 21 21 22 22 23 24 24 26 27 29 29 29 29 29 30 30 30 31 31 31 31 31 31 30 30 30
14 16 16 16 16 16 16 17 18 18 17 17 17 18 19 19 20 20 20 21 21 22 23 24 26 27 28 28 27 28 28 29 29 29 29 29 29 29 29 30 30 30 30 30
10 11 13 14 14 14 15 16 16 16 16 17 18 18 18 19 19 20 20 21 22 22 23 24 26 26 26 26 26 27 27 27 28 28 28 28 28 29 30 30 30 30 30 30
8 9 10 11 12 12 13 14 15 16 16 17 17 17 18 18 19 20 20 21 21 22 23 24 24 25 25 25 26 26 26 27 27 28 28 28 28 29 29 29 29 29 30 30
Wind_Direction
236 236 237 241 244 246 249 253 258 263 268 268 269 272 275 277 279 278 275 279 281 282 283 285 287 291 294 296 300 304 308 310 312 313 311 310 312 313 313 312 310 308 306 308
238 238 240 241 243 246 248 252 255 259 264 267 267 270 273 276 278 277 276 278 280 280 285 286 285 287 289 291 294 298 301 304 308 308 309 308 310 311 310 309 309 309 307 306
239 240 242 242 243 246 249 252 254 258 263 265 266 269 273 274 276 277 278 277 279 281 282 283 281 282 284 287 290 293 297 300 304 307 307 305 307 309 309 310 310 307 306 306
241 242 244 245 245 246 249 252 256 258 260 263 268 267 269 271 273 274 275 276 278 278 282 282 282 283 284 286 288 290 294 297 300 304 305 304 303 304 304 304 305 305 308 308
242 244 246 247 246 248 251 253 255 256 258 260 265 266 268 269 271 274 275 277 278 279 282 282 281 281 282 284 286 288 291 295 296 298 302 301 300 299 299 298 299 301 304 304
243 245 247 247 248 249 251 252 254 255 258 261 264 266 268 270 271 273 272 274 278 278 280 279 280 280 281 283 285 287 288 291 293 295 296 296 296 296 295 294 296 297 300 301
244 246 247 248 250 251 252 254 255 256 258 261 263 265 267 269 270 270 269 272 276 277 278 279 279 279 281 283 284 284 286 289 290 290 291 293 293 294 294 294 296 296 298 298
244 246 247 249 251 252 254 253 255 257 259 260 261 263 264 267 267 267 267 271 274 276 277 278 280 281 281 281 282 283 286 289 291 290 290 293 293 291 291 293 295 296 297 296
244 246 248 250 252 253 253 254 255 257 259 260 261 263 264 265 266 265 266 268 270 271 274 276 279 281 282 282 282 283 284 286 289 291 291 293 295 295 292 292 293 294 295 295
243 244 247 250 251 252 254 255 255 256 258 260 261 263 264 266 265 264 265 264 266 269 273 277 279 281 283 282 282 283 283 284 286 287 288 289 292 294 294 292 293 293 293 293
244 245 247 249 251 253 255 257 257 258 259 260 260 260 263 265 265 264 263 265 268 269 272 275 278 280 281 283 282 280 281 281 283 285 287 287 288 290 292 292 292 294 294 294
244 245 247 249 251 252 254 257 258 258 259 260 261 261 262 263 262 263 264 267 270 270 272 274 276 278 279 281 282 280 280 280 283 284 285 287 287 288 290 292 292 293 293 293
246 247 249 250 251 252 253 255 258 259 261 262 262 262 262 262 264 264 265 268 271 273 274 273 275 279 280 280 281 280 281 281 282 284 285 287 289 289 287 289 291 290 290 291
246 248 249 250 250 251 254 256 258 260 261 262 263 262 262 264 264 264 265 267 268 270 272 275 278 280 281 281 280 279 280 281 280 282 284 285 286 288 287 288 289 288 289 290
246 248 250 252 253 254 256 258 259 260 261 261 261 262 263 265 264 264 265 265 266 267 271 274 278 279 279 279 279 279 280 279 280 281 282 283 284 286 287 286 287 289 289 289
248 250 252 254 256 257 258 259 260 260 261 263 262 262 263 264 264 264 265 265 266 267 270 273 277 278 278 277 277 278 280 279 279 280 282 283 284 285 286 287 287 289 289 288
249 251 253 255 256 257 258 259 260 261 263 264 264 263 264 263 263 264 266 268 267 267 269 272 274 276 277 278 278 278 279 279 279 280 282 283 284 285 286 287 288 290 289 288
250 251 253 256 259 261 261 261 261 263 265 267 267 265 267 266 265 265 268 269 268 269 270 271 273 274 276 278 278 278 278 277 278 279 281 283 285 285 286 287 289 290 291 290
250 252 253 256 259 261 261 260 260 261 263 263 264 265 266 266 267 268 269 269 269 269 270 272 275 275 277 280 278 278 279 279 278 280 282 283 284 285 286 286 288 289 289 290
252 253 254 256 258 258 258 258 259 261 261 261 263 264 264 266 269 269 270 269 271 272 273 274 275 278 279 279 280 281 282 283 283 284 284 284 284 284 285 288 289 288 288 289
252 252 256 258 259 258 259 258 261 261 262 265 264 264 266 268 269 270 270 270 272 273 274 274 275 276 277 279 281 283 284 284 284 284 285 286 285 284 284 286 287 287 288 289
252 253 256 259 261 260 259 258 262 265 265 266 264 264 267 269 269 270 271 272 273 274 274 275 277 278 280 282 284 285 285 285 284 283 284 286 286 285 286 286 285 285 287 289
252 254 255 258 260 261 259 259 262 263 264 264 265 268 270 270 270 273 274 275 276 276 277 278 280 281 282 284 285 285 285 285 284 284 286 287 288 288 287 286 286 286 286 287
250 251 253 256 259 261 260 261 262 265 266 264 267 269 272 272 273 275 275 275 276 277 279 281 282 283 285 286 287 286 286 286 286 286 287 289 289 289 287 287 288 288 287 287
251 250 250 254 259 260 261 263 266 266 265 267 270 272 274 275 275 275 276 277 278 278 280 282 284 286 288 289 289 289 288 287 288 288 289 290 290 290 289 289 289 289 288 288
257 255 253 253 256 257 259 263 265 267 269 269 270 272 274 276 277 278 279 279 281 282 284 286 287 290 290 290 290 290 290 290 290 290 289 289 290 290 291 290 290 289 289 289
256 261 263 262 261 263 263 263 264 267 269 272 273 274 276 278 279 281 283 284 285 286 288 290 291 293 292 290 291 292 292 291 290 290 290 289 290 291 291 291 291 290 289 288
Height
5859 5862 5865 5867 5870 5872 5874 5876 5878 5880 5882 5883 5884 5885 5885 5885 5885 5885 5884 5884 5884 5883 5882 5881 5881 5880 5878 5877 5876 5875 5873 5870 5868 5866 5864 5862 5860 5858 5855 5853 5851 5850 5848 5846
5852 5856 5858 5861 5864 5866 5869 5871 5873 5875 5877 5878 5879 5879 5880 5880 5880 5880 5880 5879 5879 5878 5878 5877 5876 5875 5875 5874 5872 5871 5869 5866 5864 5862 5860 5858 5856 5854 5852 5850 5848 5846 5845 5843
5846 5849 5851 5854 5858 5860 5863 5865 5867 5869 5871 5872 5873 5874 5875 5875 5875 5875 5875 5874 5873 5873 5873 5872 5871 5870 5869 5869 5868 5866 5864 5862 5860 5858 5855 5853 5852 5850 5848 5846 5844 5842 5840 5838
5838 5842 5844 5850 5851 5854 5856 5858 5860 5862 5865 5866 5867 5868 5869 5870 5870 5870 5870 5869 5868 5868 5867 5866 5865 5864 5864 5863 5862 5861 5859 5857 5855 5853 5851 5849 5848 5846 5844 5842 5840 5838 5836 5834
5830 5833 5836 5841 5843 5846 5849 5851 5853 5856 5858 5859 5861 5862 5863 5863 5864 5864 5864 5864 5863 5862 5861 5860 5860 5859 5858 5858 5856 5855 5853 5851 5849 5848 5846 5845 5843 5841 5839 5837 5835 5833 5831 5829
5821 5824 5828 5834 5837 5839 5842 5843 5846 5848 5850 5852 5854 5855 5857 5857 5857 5857 5857 5857 5857 5856 5855 5855 5854 5853 5852 5851 5850 5848 5847 5845 5843 5841 5840 5838 5837 5835 5833 5831 5829 5827 5825 5823
5813 5816 5820 5825 5828 5832 5835 5838 5839 5841 5843 5844 5846 5848 5849 5849 5850 5850 5850 5850 5850 5849 5849 5848 5847 5846 5845 5844 5843 5841 5839 5838 5836 5834 5832 5831 5830 5828 5827 5825 5823 5821 5819 5817
5806 5810 5815 5817 5820 5824 5826 5829 5830 5832 5834 5836 5838 5840 5841 5842 5842 5842 5842 5843 5842 5842 5841 5841 5840 5839 5838 5837 5836 5834 5832 5831 5829 5827 5825 5824 5823 5821 5820 5818 5816 5814 5812 5810
5800 5804 5807 5809 5812 5814 5817 5820 5822 5824 5826 5828 5830 5831 5832 5833 5834 5834 5834 5834 5835 5834 5834 5833 5832 5831 5830 5829 5828 5827 5826 5824 5822 5820 5819 5817 5816 5814 5813 5811 5809 5807 5805 5803
5791 5795 5798 5801 5803 5806 5808 5811 5813 5815 5817 5819 5820 5822 5823 5824 5825 5825 5825 5826 5826 5826 5826 5825 5824 5823 5822 5821 5820 5819 5818 5817 5815 5814 5813 5811 5809 5808 5806 5804 5801 5799 5797 5795
5783 5787 5790 5792 5795 5797 5799 5802 5804 5806 5808 5809 5811 5813 5814 5814 5815 5816 5817 5817 5817 5817 5817 5816 5815 5815 5814 5813 5812 5811 5810 5808 5807 5806 5805 5803 5802 5800 5798 5796 5794 5791 5789 5786
5776 5779 5782 5785 5786 5789 5791 5793 5795 5797 5799 5800 5802 5803 5804 5805 5806 5806 5807 5807 5808 5807 5807 5807 5806 5806 5805 5804 5803 5802 5801 5800 5799 5797 5796 5794 5793 5791 5789 5787 5785 5782 5780 5778
5767 5769 5772 5775 5777 5779 5782 5784 5786 5787 5789 5791 5792 5793 5794 5795 5796 5797 5798 5798 5798 5798 5798 5797 5797 5797 5796 5795 5794 5793 5792 5791 5790 5789 5787 5785 5784 5782 5781 5779 5776 5773 5771 5769
5758 5761 5764 5766 5768 5770 5772 5774 5776 5778 5779 5780 5782 5783 5784 5785 5786 5787 5788 5788 5789 5789 5789 5788 5788 5788 5787 5786 5784 5783 5782 5781 5781 5780 5778 5776 5775 5773 5771 5769 5766 5764 5762 5760
5749 5752 5755 5757 5759 5761 5763 5764 5766 5768 5769 5770 5771 5773 5774 5775 5776 5777 5778 5778 5779 5779 5779 5779 5779 5779 5777 5776 5775 5774 5773 5772 5771 5770 5768 5767 5765 5763 5761 5759 5757 5755 5753 5751
5740 5743 5745 5748 5750 5752 5753 5754 5756 5757 5759 5760 5761 5763 5764 5764 5765 5766 5767 5768 5768 5769 5769 5769 5769 5769 5767 5766 5765 5764 5763 5762 5761 5760 5758 5756 5755 5753 5751 5749 5747 5745 5743 5741
5731 5734 5736 5738 5740 5742 5743 5744 5746 5747 5748 5749 5751 5752 5753 5754 5754 5756 5757 5757 5757 5758 5759 5759 5759 5758 5757 5756 5755 5754 5753 5752 5751 5750 5748 5746 5744 5743 5741 5739 5737 5735 5734 5732
5723 5725 5727 5729 5731 5732 5734 5735 5736 5737 5739 5740 5740 5741 5743 5744 5745 5746 5747 5748 5748 5748 5748 5748 5748 5748 5747 5746 5745 5744 5743 5742 5741 5740 5738 5737 5735 5733 5732 5730 5728 5726 5725 5723
5715 5717 5719 5721 5722 5723 5724 5726 5727 5728 5729 5730 5731 5732 5733 5735 5736 5737 5738 5738 5739 5739 5739 5738 5738 5738 5737 5736 5735 5734 5733 5732 5731 5730 5728 5727 5725 5724 5722 5721 5719 5718 5716 5714
5707 5709 5711 5712 5713 5714 5716 5718 5719 5720 5721 5721 5722 5723 5724 5726 5727 5728 5729 5729 5730 5730 5729 5729 5728 5728 5727 5726 5725 5724 5723 5722 5722 5720 5719 5717 5716 5715 5713 5712 5710 5709 5707 5705
5701 5703 5704 5705 5706 5707 5709 5710 5711 5712 5712 5713 5714 5716 5717 5718 5719 5719 5720 5721 5721 5720 5720 5719 5719 5719 5718 5718 5717 5715 5714 5713 5712 5711 5710 5708 5707 5705 5704 5702 5701 5699 5697 5696
5696 5697 5699 5699 5700 5701 5702 5704 5705 5705 5706 5706 5707 5708 5709 5710 5711 5711 5712 5712 5712 5711 5711 5711 5710 5710 5709 5708 5707 5706 5705 5704 5703 5702 5700 5699 5697 5696 5694 5692 5691 5689 5688 5686
5691 5692 5693 5694 5695 5696 5697 5698 5699 5700 5700 5701 5701 5702 5703 5704 5704 5705 5705 5705 5704 5704 5703 5703 5702 5701 5701 5700 5698 5697 5696 5695 5693 5692 5691 5689 5688 5686 5684 5683 5681 5679 5677 5676
5686 5687 5689 5690 5691 5692 5692 5693 5694 5695 5695 5696 5697 5697 5698 5698 5699 5698 5698 5698 5697 5697 5696 5696 5695 5694 5692 5691 5689 5688 5686 5685 5684 5682 5681 5680 5678 5676 5674 5673 5671 5669 5668 5666
5682 5683 5684 5686 5686 5687 5688 5689 5690 5690 5691 5691 5692 5692 5692 5692 5692 5692 5692 5692 5691 5690 5690 5689 5687 5686 5684 5682 5680 5678 5677 5675 5674 5673 5671 5670 5668 5666 5665 5663 5661 5660 5658 5657
5679 5680 5681 5682 5683 5684 5684 5685 5686 5686 5686 5687 5687 5687 5687 5687 5687 5686 5686 5685 5684 5683 5682 5681 5679 5678 5676 5674 5672 5670 5668 5667 5665 5663 5662 5660 5659 5657 5656 5654 5652 5651 5649 5647
5677 5678 5679 5679 5680 5680 5681 5681 5682 5682 5682 5681 5681 5681 5681 5682 5681 5680 5680 5679 5678 5677 5675 5674 5672 5670 5668 5666 5664 5662 5660 5659 5657 5655 5653 5652 5650 5649 5647 5645 5643 5641 5639 5638